Thedford, NE

5:11 AM CDT on August 26, 2016 (GMT -0500)
Thedford

Weather History for KTIF - November, 2011

Change the Weather History Date:

Tuesday, November 22, 2011

  Actual Average (KLBF) Record (KLBF)
Temperature  
Mean Temperature 42 °F 32 °F  
Max Temperature 55 °F 47 °F 73 °F (1903)
Min Temperature 28 °F 18 °F -6 °F (1898)
Degree Days  
Heating Degree Days 24 33  
Month to date heating degree days 605  
Since 1 July heating degree days 1274  
Cooling Degree Days 0 0  
Month to date cooling degree days 0  
Year to date cooling degree days 768  
Moisture  
Dew Point 26 °F    
Average Humidity 62    
Maximum Humidity 87    
Minimum Humidity 30    
Precipitation  
Precipitation 0.00 in 0.02 in 0.22 in (1952)
Month to date precipitation 0.51  
Year to date precipitation 19.69  
Sea Level Pressure  
Sea Level Pressure 30.01 in    
Wind  
Wind Speed 5 mph (West)    
Max Wind Speed 15 mph    
Max Gust Speed 20 mph    
Visibility 10 miles    
Events      
T = Trace of Precipitation, MM = Missing Value Source: NWS Daily Summary

Daily Weather History Graph

Daily Weather History Graph

Search for Another Location

Airport or City:

Trip Planner

Search our weather history database for the weather conditions in past years. The results will help you decide how hot, cold, wet, or windy it might be!

Date:

Astronomy

Nov. 22, 2011 Rise Set
Actual Time 7:40 AM CST 5:16 PM CST
Civil Twilight 7:09 AM CST 5:46 PM CST
Nautical Twilight 6:35 AM CST 6:20 PM CST
Astronomical Twilight 6:02 AM CST 6:54 PM CST
Moon 4:31 AM CST (11/22) 3:18 PM CST (11/22)
Length of Visible Light 10h 36m
Length of Day
9h 35m
Waning Crescent, 9% of the Moon is Illuminated
Nov 22
Waning Crescent
Nov 25
New
Dec 2
First Quarter
Dec 10
Full
Dec 17
Last Quarter

Hourly Weather History & Observations

Time (CST) Temp. Windchill Dew Point Humidity Pressure Visibility Wind Dir Wind Speed Gust Speed Precip Events Conditions
12:15 AM 30.2 °F 25.4 °F 24.8 °F 80% 30.00 in 10.0 mi SW 4.6 mph - N/A   Clear
12:35 AM 30.2 °F 26.7 °F 24.8 °F 80% 30.01 in 10.0 mi SW 3.5 mph - N/A   Mostly Cloudy
12:55 AM 32.0 °F 28.7 °F 26.6 °F 80% 30.01 in 10.0 mi West 3.5 mph - N/A   Mostly Cloudy
1:15 AM 28.4 °F - 24.8 °F 86% 30.01 in 10.0 mi Calm Calm - N/A   Scattered Clouds
1:35 AM 28.4 °F 24.6 °F 24.8 °F 86% 30.00 in 10.0 mi WSW 3.5 mph - N/A   Clear
1:55 AM 30.2 °F 25.4 °F 24.8 °F 80% 29.99 in 10.0 mi WSW 4.6 mph - N/A   Clear
2:15 AM 32.0 °F - 26.6 °F 80% 29.99 in 10.0 mi Calm Calm - N/A   Scattered Clouds
2:35 AM 32.0 °F 27.5 °F 26.6 °F 80% 29.99 in 10.0 mi SW 4.6 mph - N/A   Mostly Cloudy
2:55 AM 32.0 °F 28.7 °F 26.6 °F 80% 30.00 in 10.0 mi WSW 3.5 mph - N/A   Overcast
3:15 AM 32.0 °F - 26.6 °F 80% 29.99 in 10.0 mi Calm Calm - N/A   Overcast
3:35 AM 32.0 °F - 26.6 °F 80% 29.99 in 10.0 mi Calm Calm - N/A   Overcast
3:55 AM 32.0 °F - 26.6 °F 80% 29.98 in 10.0 mi Calm Calm - N/A   Overcast
4:15 AM 32.0 °F - 26.6 °F 80% 29.98 in 10.0 mi Calm Calm - N/A   Overcast
4:35 AM 32.0 °F - 26.6 °F 80% 29.98 in 10.0 mi Calm Calm - N/A   Overcast
4:55 AM 28.4 °F - 24.8 °F 86% 29.98 in 10.0 mi Calm Calm - N/A   Scattered Clouds
5:15 AM 30.2 °F - 26.6 °F 86% 29.98 in 10.0 mi Calm Calm - N/A   Clear
5:55 AM 30.2 °F 25.4 °F 26.6 °F 86% 29.99 in 10.0 mi WNW 4.6 mph - N/A   Clear
6:15 AM 30.2 °F 22.6 °F 26.6 °F 86% 29.99 in 10.0 mi WNW 8.1 mph - N/A   Clear
6:35 AM 32.0 °F 24.8 °F 28.4 °F 87% 29.99 in 10.0 mi West 8.1 mph - N/A   Clear
6:55 AM 32.0 °F 25.6 °F 28.4 °F 87% 30.00 in 10.0 mi West 6.9 mph - N/A   Clear
7:15 AM 30.2 °F - 26.6 °F 86% 30.00 in 10.0 mi Calm Calm - N/A   Clear
7:35 AM 30.2 °F 25.4 °F 26.6 °F 86% 30.00 in 10.0 mi West 4.6 mph - N/A   Clear
7:55 AM 30.2 °F 23.4 °F 26.6 °F 86% 30.00 in 10.0 mi West 6.9 mph - N/A   Clear
8:15 AM 30.2 °F 25.4 °F 26.6 °F 86% 30.00 in 10.0 mi West 4.6 mph - N/A   Clear
8:35 AM 32.0 °F 27.5 °F 28.4 °F 87% 30.01 in 10.0 mi West 4.6 mph - N/A   Clear
8:55 AM 33.8 °F 28.6 °F 28.4 °F 81% 30.01 in 10.0 mi NW 5.8 mph - N/A   Clear
9:15 AM 35.6 °F 27.5 °F 30.2 °F 81% 30.01 in 10.0 mi WNW 11.5 mph 16.1 mph N/A   Clear
9:35 AM 39.2 °F 31.2 °F 30.2 °F 70% 30.02 in 10.0 mi WNW 13.8 mph - N/A   Clear
9:55 AM 42.8 °F 36.6 °F 30.2 °F 61% 30.03 in 10.0 mi NW 11.5 mph - N/A   Clear
10:15 AM 44.6 °F 37.8 °F 30.2 °F 57% 30.03 in 10.0 mi WNW 15.0 mph - N/A   Clear
10:35 AM 46.4 °F 41.1 °F 30.2 °F 53% 30.03 in 10.0 mi NW 11.5 mph - N/A   Clear
10:55 AM 48.2 °F - 30.2 °F 50% 30.03 in 10.0 mi WNW 13.8 mph 17.3 mph N/A   Clear
11:35 AM 50.0 °F - 28.4 °F 43% 30.03 in 10.0 mi WNW 13.8 mph 19.6 mph N/A   Clear
11:55 AM 51.8 °F - 28.4 °F 41% 30.03 in 10.0 mi NW 11.5 mph 16.1 mph N/A   Clear
12:15 PM 51.8 °F - 28.4 °F 41% 30.02 in 10.0 mi WNW 11.5 mph 17.3 mph N/A   Clear
12:35 PM 53.6 °F - 28.4 °F 38% 30.01 in 10.0 mi NW 11.5 mph 18.4 mph N/A   Clear
12:55 PM 53.6 °F - 28.4 °F 38% 30.00 in 10.0 mi NW 9.2 mph - N/A   Clear
1:15 PM 55.4 °F - 28.4 °F 36% 30.00 in 10.0 mi West 6.9 mph - N/A   Clear
1:35 PM 55.4 °F - 28.4 °F 36% 30.00 in 10.0 mi West 10.4 mph - N/A   Clear
1:55 PM 55.4 °F - 28.4 °F 36% 29.99 in 10.0 mi West 9.2 mph 16.1 mph N/A   Clear
2:15 PM 55.4 °F - 26.6 °F 33% 29.99 in 10.0 mi WNW 8.1 mph - N/A   Clear
2:35 PM 55.4 °F - 26.6 °F 33% 29.98 in 10.0 mi WNW 6.9 mph - N/A   Clear
2:55 PM 55.4 °F - 26.6 °F 33% 29.98 in 10.0 mi WNW 10.4 mph - N/A   Clear
3:15 PM 55.4 °F - 26.6 °F 33% 29.98 in 10.0 mi WNW 6.9 mph - N/A   Clear
3:35 PM 53.6 °F - 24.8 °F 33% 29.99 in 10.0 mi WNW 8.1 mph - N/A   Clear
3:55 PM 53.6 °F - 23.0 °F 30% 29.99 in 10.0 mi WNW 3.5 mph - N/A   Clear
4:15 PM 51.8 °F - 23.0 °F 33% 30.00 in 10.0 mi West 3.5 mph - N/A   Clear
4:35 PM 50.0 °F - 23.0 °F 35% 30.02 in 10.0 mi West 4.6 mph - N/A   Clear
4:55 PM 50.0 °F - 23.0 °F 35% 30.02 in 10.0 mi West 3.5 mph - N/A   Clear
5:15 PM 46.4 °F - 23.0 °F 40% 30.02 in 10.0 mi Calm Calm - N/A   Clear
5:35 PM 44.6 °F 43.1 °F 23.0 °F 43% 30.02 in 10.0 mi WSW 3.5 mph - N/A   Clear
5:55 PM 42.8 °F 38.6 °F 23.0 °F 46% 30.03 in 10.0 mi WSW 6.9 mph - N/A   Clear
6:15 PM 41.0 °F - 23.0 °F 49% 30.03 in 10.0 mi Calm Calm - N/A   Clear
6:35 PM 39.2 °F - 23.0 °F 52% 30.04 in 10.0 mi Calm Calm - N/A   Clear
6:55 PM 41.0 °F - 23.0 °F 49% 30.05 in 10.0 mi Calm Calm - N/A   Clear
7:15 PM 35.6 °F 31.7 °F 23.0 °F 60% 30.04 in 10.0 mi SW 4.6 mph - N/A   Clear
7:35 PM 37.4 °F - 23.0 °F 56% 30.04 in 10.0 mi Calm Calm - N/A   Clear
7:55 PM 33.8 °F - 23.0 °F 65% 30.04 in 10.0 mi Calm Calm - N/A   Clear
8:15 PM 35.6 °F - 23.0 °F 60% 30.04 in 10.0 mi Calm Calm - N/A   Clear
8:35 PM 32.0 °F - 23.0 °F 69% 30.05 in 10.0 mi Calm Calm - N/A   Clear
8:55 PM 33.8 °F - 23.0 °F 65% 30.05 in 10.0 mi Calm Calm - N/A   Clear
9:15 PM 35.6 °F 28.6 °F 24.8 °F 65% 30.05 in 10.0 mi SSW 9.2 mph - N/A   Clear
9:35 PM 35.6 °F 28.0 °F 23.0 °F 60% 30.06 in 10.0 mi SSW 10.4 mph - N/A   Clear
9:55 PM 35.6 °F 29.2 °F 23.0 °F 60% 30.06 in 10.0 mi SSW 8.1 mph - N/A   Clear
10:15 PM 32.0 °F 26.4 °F 23.0 °F 69% 30.07 in 10.0 mi SW 5.8 mph - N/A   Clear
10:35 PM 33.8 °F 26.4 °F 23.0 °F 65% 30.07 in 10.0 mi SW 9.2 mph - N/A   Clear
10:55 PM 35.6 °F 28.0 °F 23.0 °F 60% 30.07 in 10.0 mi SW 10.4 mph - N/A   Clear
11:15 PM 35.6 °F 28.6 °F 23.0 °F 60% 30.07 in 10.0 mi SW 9.2 mph - N/A   Clear
11:35 PM 35.6 °F 32.8 °F 23.0 °F 60% 30.06 in 10.0 mi West 3.5 mph - N/A   Clear
11:55 PM 33.8 °F - 23.0 °F 65% 30.05 in 10.0 mi Calm Calm - N/A   Clear